Stations météo

réclame
Mon MeteoGroup
Socoa, France (7600): Température de l'air & dewpoint: 11.01.2018 02:00:00 - 17.01.2018 02:00:00 (CET)Socoa, France (7600): Vitesse du vent & gusts: 11.01.2018 02:00:00 - 17.01.2018 02:00:00 (CET)Socoa, France (7600): Direction du vent: 11.01.2018 02:00:00 - 17.01.2018 02:00:00 (CET)Socoa, France (7600): reduced air pressure: 11.01.2018 02:00:00 - 17.01.2018 02:00:00 (CET)Socoa, France (7600): visibility: 11.01.2018 02:00:00 - 17.01.2018 02:00:00 (CET)Socoa, France (7600): Quantités de précipitations: 11.01.2018 02:00:00 - 17.01.2018 02:00:00 (CET)
Date & Time tt [°C] td [°C] ff [km/h] ff [knt] fx [km/h] fx [knt] dd ppp [hPa] vv [km] rr [mm]
17.01.2018 02:00:00 - - - - - - - - - -
17.01.2018 01:00:00 13,5 11,2 52 28 75 41 W 1022,8 10 0,0
17.01.2018 00:00:00 13,0 11,9 46 25 69 37 W 1022,6 - 0,4
16.01.2018 23:00:00 12,7 11,8 24 13 39 21 W 1022,8 - 2,4
16.01.2018 22:00:00 12,9 10,8 17 9 47 25 SW 1021,9 10 0,8
16.01.2018 21:00:00 14,6 9,8 23 12 41 22 WSW 1022,1 - 0,0
16.01.2018 20:00:00 14,6 10,0 22 12 45 25 WSW 1022,2 - 0,0
16.01.2018 19:00:00 14,4 10,2 18 10 44 24 WSW 1022,2 10 0,0
16.01.2018 18:00:00 14,3 10,5 27 14 51 27 W 1022,1 - 0,0
16.01.2018 17:00:00 14,5 10,1 31 17 54 29 WSW 1022,1 - 0,0
16.01.2018 16:00:00 14,4 10,6 34 19 55 30 W 1022,5 15 0,0
16.01.2018 15:00:00 14,0 10,2 28 15 45 24 W 1023,1 - 0,0
16.01.2018 14:00:00 13,8 10,8 18 10 40 22 SW 1023,5 - 0,0
16.01.2018 13:00:00 13,0 11,2 23 12 41 22 SW 1024,4 10 0,0
16.01.2018 12:00:00 12,4 11,5 24 13 40 22 WSW 1025,1 - 0,2
16.01.2018 11:00:00 12,1 11,3 22 12 43 23 SW 1024,8 - 0,6
16.01.2018 10:00:00 11,5 10,7 23 12 41 22 SW 1024,6 4,8 1,4
16.01.2018 09:00:00 11,7 10,4 24 13 50 27 SW 1023,9 - 0,4
16.01.2018 08:00:00 12,1 10,7 27 15 47 26 WSW 1023,2 - 0,6
16.01.2018 07:00:00 11,7 9,9 24 13 39 21 WSW 1022,6 8 0,4
16.01.2018 06:00:00 12,2 9,4 20 11 39 21 WSW 1021,9 - 0,2
16.01.2018 05:00:00 12,1 8,8 25 13 48 26 WSW 1021,8 - 0,2
16.01.2018 04:00:00 12,6 8,3 23 12 56 31 WSW 1022,1 - 0,2
16.01.2018 03:00:00 13,6 7,4 23 12 47 26 SW 1021,1 - 0,0
16.01.2018 02:00:00 12,7 7,4 26 14 48 26 SW 1021,7 - 0,0
16.01.2018 01:00:00 12,7 6,7 32 17 58 32 WSW 1022,1 15 0,0
16.01.2018 00:00:00 12,9 6,5 32 17 50 27 SW 1022,1 - 0,0
15.01.2018 23:00:00 12,6 6,2 27 14 43 23 SW 1021,8 - 0,0
15.01.2018 22:00:00 12,2 5,8 23 13 44 24 SSW 1021,8 - 0,0
15.01.2018 21:00:00 11,5 3,3 17 9 27 15 SSW 1022,0 - 0,0
15.01.2018 20:00:00 11,7 1,6 17 9 43 23 SW 1021,9 - 0,0
15.01.2018 19:00:00 12,0 1,6 17 9 31 17 SSW 1021,4 20 0,0
15.01.2018 18:00:00 12,0 2,2 14 8 28 15 SSW 1021,2 - 0,0
15.01.2018 17:00:00 12,6 4,3 10 5 16 9 SSW 1021,5 - 0,0
15.01.2018 16:00:00 13,6 4,5 6 3 18 10 SSW 1021,1 - 0,0
15.01.2018 15:00:00 13,5 5,6 5 3 21 11 SW 1021,7 - 0,0
15.01.2018 14:00:00 12,7 4,9 15 8 24 13 S 1022,6 - 0,0
15.01.2018 13:00:00 14,0 4,6 17 9 30 16 SW 1023,2 - 0,0
15.01.2018 12:00:00 12,8 5,2 17 9 30 16 SSW 1024,3 - 0,0
15.01.2018 11:00:00 11,3 6,2 14 8 25 14 SSW 1025,3 - 0,0
15.01.2018 10:00:00 8,7 5,8 19 10 27 15 SSW 1025,1 - 0,0
15.01.2018 09:00:00 8,4 5,7 19 10 31 17 SSW 1024,6 - 0,0
15.01.2018 08:00:00 8,5 6,3 17 9 34 19 SSW 1024,1 - 0,0
15.01.2018 07:00:00 8,7 5,8 21 11 36 19 SW 1023,8 15 0,0
15.01.2018 06:00:00 8,4 5,9 22 12 31 17 SW 1023,6 - 0,2
15.01.2018 05:00:00 8,2 6,2 21 11 34 18 SW 1023,6 - 0,2
15.01.2018 04:00:00 8,0 6,1 23 12 37 20 SW 1023,7 - 0,4
15.01.2018 03:00:00 7,9 6,4 22 12 33 18 SW 1023,5 - 0,4
15.01.2018 02:00:00 7,4 5,9 23 12 35 19 SW 1023,2 - 0,0
15.01.2018 01:00:00 7,8 6,3 16 9 31 17 SW 1023,5 15 3,6
15.01.2018 00:00:00 7,8 6,6 24 13 39 21 SW 1023,5 12 1,8
14.01.2018 23:00:00 8,0 6,0 26 14 41 22 SW 1022,4 - 0,0
14.01.2018 22:00:00 8,0 6,3 22 12 33 18 SSW 1022,1 12 0,2
14.01.2018 21:00:00 7,7 6,8 18 10 37 20 WSW 1021,8 - 3,6
14.01.2018 20:00:00 7,7 6,6 22 12 38 20 SW 1021,0 - 2,0
14.01.2018 19:00:00 7,7 6,8 15 8 34 18 SW 1020,4 8 3,9
14.01.2018 18:00:00 7,7 6,5 22 12 38 20 SW 1019,6 - 2,4
14.01.2018 17:00:00 7,8 6,6 10 6 40 21 SW 1018,8 - 2,2
14.01.2018 16:00:00 8,4 6,7 29 15 43 23 WSW 1018,4 - 0,4
14.01.2018 15:00:00 8,5 7,0 24 13 43 23 SW 1017,7 - 0,4
14.01.2018 14:00:00 8,5 7,0 25 14 44 24 SW 1017,5 - 1,2
14.01.2018 13:00:00 8,2 7,0 30 16 52 28 SW 1017,4 12 3,8
14.01.2018 12:00:00 7,8 6,3 24 13 46 25 SW 1017,9 - 3,9
14.01.2018 11:00:00 7,9 6,2 27 15 46 25 SW 1017,6 - 1,8
14.01.2018 10:00:00 7,8 5,8 29 16 48 26 SW 1017,1 15 0,4
14.01.2018 09:00:00 7,6 4,7 29 15 45 25 SW 1016,7 - 0,0
14.01.2018 08:00:00 7,1 4,2 29 16 46 25 SW 1016,2 - 0,0
14.01.2018 07:00:00 7,0 5,3 27 15 51 27 SW 1016,0 20 0,6
14.01.2018 06:00:00 7,5 5,1 31 17 50 27 SW 1015,7 - 0,0
14.01.2018 05:00:00 7,5 4,6 31 17 50 27 SW 1015,5 - 0,0
14.01.2018 04:00:00 7,2 5,2 27 14 41 22 SW 1015,7 - 0,0
14.01.2018 03:00:00 6,7 5,2 24 13 37 20 SSW 1015,8 - 0,7
14.01.2018 02:00:00 6,7 5,3 16 9 26 14 SSW 1016,0 - 1,6
14.01.2018 01:00:00 7,0 5,3 16 8 31 17 SSW 1016,6 - 1,4
14.01.2018 00:00:00 7,2 6,0 18 10 31 17 SW 1016,8 - 1,0
13.01.2018 23:00:00 7,6 6,2 16 9 22 12 WSW 1016,5 - 0,8
13.01.2018 22:00:00 8,2 5,7 8 4 21 11 SW 1016,4 18 1,0
13.01.2018 21:00:00 9,8 3,1 13 7 31 17 SW 1016,0 - 0,0
13.01.2018 20:00:00 10,3 1,6 16 9 25 14 SW 1015,4 - 0,0
13.01.2018 19:00:00 11,1 1,1 15 8 31 17 SW 1014,9 20 0,0
13.01.2018 18:00:00 11,2 1,4 14 8 24 13 SSW 1014,4 - 0,0
13.01.2018 17:00:00 11,8 1,4 12 6 36 20 S 1014,2 - 0,0
13.01.2018 16:00:00 12,2 1,5 14 8 42 23 SSW 1014,4 - 0,0
13.01.2018 15:00:00 12,5 1,2 26 14 41 22 SSW 1014,5 - 0,0
13.01.2018 14:00:00 12,5 1,2 19 10 47 25 S 1014,7 - 0,0
13.01.2018 13:00:00 13,3 1,0 28 15 49 26 S 1015,0 20 0,0
13.01.2018 12:00:00 12,1 0,8 19 11 64 35 SSE 1015,5 - 0,0
13.01.2018 11:00:00 12,0 0,1 45 24 72 39 S 1015,2 - 0,0
13.01.2018 10:00:00 11,2 0,0 19 10 63 34 S 1015,4 20 0,0
13.01.2018 09:00:00 11,3 -1,2 37 20 63 34 S 1014,8 - 0,0
13.01.2018 08:00:00 11,4 -0,8 30 16 49 26 S 1015,2 - 0,0
13.01.2018 07:00:00 10,7 0,4 13 7 41 22 S 1014,9 20 0,0
13.01.2018 06:00:00 10,5 0,8 21 11 44 24 SSE 1015,6 - 0,0
13.01.2018 05:00:00 10,0 1,1 6 3 33 18 SSE 1016,1 - 0,0
13.01.2018 04:00:00 7,7 2,2 9 5 29 16 E 1017,0 - 0,0
13.01.2018 03:00:00 7,3 2,4 17 9 30 16 SE 1017,9 - 0,0
13.01.2018 02:00:00 6,9 3,9 18 10 29 15 SE 1019,1 - 0,0
13.01.2018 01:00:00 6,3 5,1 13 7 18 10 ESE 1020,1 15 0,0
13.01.2018 00:00:00 6,0 4,8 5 3 19 11 S 1020,9 - 0,0
12.01.2018 23:00:00 6,6 5,4 11 6 16 9 SE 1021,5 - 0,0
12.01.2018 22:00:00 7,2 6,0 14 7 24 13 ESE 1022,3 10 0,0
12.01.2018 21:00:00 7,4 6,2 9 5 17 9 ESE 1022,8 - 0,0
12.01.2018 20:00:00 7,7 6,3 11 6 17 9 S 1023,5 - 0,0
12.01.2018 19:00:00 8,6 6,9 7 4 11 6 S 1023,6 20 0,0
12.01.2018 18:00:00 9,6 7,0 6 4 10 5 SSE 1023,5 - 0,0
12.01.2018 17:00:00 11,3 6,6 5 3 11 6 W 1023,6 - 0,0
12.01.2018 16:00:00 12,6 8,1 5 3 12 7 W 1023,8 - 0,0
12.01.2018 15:00:00 13,8 8,2 7 4 17 9 WSW 1024,1 - 0,0
12.01.2018 14:00:00 13,3 8,6 11 6 17 9 SSW 1024,8 - 0,0
12.01.2018 13:00:00 10,7 9,1 3 2 10 5 S 1025,8 8 0,0
12.01.2018 12:00:00 9,8 8,4 9 5 14 8 ESE 1026,5 - 0,0
12.01.2018 11:00:00 9,5 8,7 8 4 10 6 E 1026,2 - 0,0
12.01.2018 10:00:00 8,7 8,2 6 3 19 11 SE 1025,9 8 0,0
12.01.2018 09:00:00 8,2 7,8 15 8 24 13 SW 1026,0 - 0,6
12.01.2018 08:00:00 7,2 6,6 11 6 18 10 SSW 1025,7 - 0,0
12.01.2018 07:00:00 7,8 7,2 13 7 21 12 SSW 1025,6 15 0,8
12.01.2018 06:00:00 7,7 7,3 18 10 29 16 SW 1025,4 - 0,0
12.01.2018 05:00:00 7,3 6,9 16 9 24 13 SSW 1025,4 - 0,2
12.01.2018 04:00:00 7,9 7,6 17 9 32 17 WSW 1025,7 - 0,6
12.01.2018 03:00:00 5,4 5,0 10 6 20 11 S 1025,7 - 0,0
12.01.2018 02:00:00 5,7 5,3 14 8 19 11 SSW 1025,4 - 0,0
12.01.2018 01:00:00 5,1 4,5 8 4 19 10 SSW 1025,5 20 0,2
12.01.2018 00:00:00 4,7 4,0 13 7 18 10 S 1025,2 - 0,0
11.01.2018 23:00:00 4,9 4,2 8 4 14 8 SSE 1024,8 - 0,0
11.01.2018 22:00:00 5,1 4,1 4 2 19 11 SSW 1024,3 20 0,0
11.01.2018 21:00:00 6,4 5,0 13 7 23 12 SSW 1023,6 - 0,0
11.01.2018 20:00:00 6,8 5,6 16 8 23 12 SSW 1023,1 - 0,0
11.01.2018 19:00:00 6,9 5,5 19 10 31 17 SW 1021,9 15 0,8
11.01.2018 18:00:00 7,1 4,7 9 5 36 19 S 1021,4 - 0,6
11.01.2018 17:00:00 6,8 4,6 18 10 60 33 SSW 1020,9 - 1,8
11.01.2018 16:00:00 6,8 4,8 35 19 63 34 SW 1020,4 - 1,0
11.01.2018 15:00:00 6,6 5,4 36 19 65 35 SW 1019,8 - 4,4
11.01.2018 14:00:00 6,8 5,1 37 20 56 30 SW 1019,6 - 0,8
11.01.2018 13:00:00 7,9 6,0 31 17 54 29 WSW 1019,7 15 0,7
11.01.2018 12:00:00 6,6 5,2 24 13 47 26 SW 1019,9 - 4,2
11.01.2018 11:00:00 6,5 4,8 28 15 50 27 SW 1019,5 - 2,4
11.01.2018 10:00:00 6,3 4,5 30 16 47 26 SW 1019,0 - 1,2
11.01.2018 09:00:00 6,7 5,2 23 12 42 23 SW 1018,6 - 3,0
11.01.2018 08:00:00 6,2 4,5 24 13 47 25 SW 1018,1 - 2,3
11.01.2018 07:00:00 6,4 4,6 32 17 55 30 WSW 1017,8 15 2,6
11.01.2018 06:00:00 6,4 3,7 18 10 56 31 SSW 1017,1 - 0,8
11.01.2018 05:00:00 7,6 3,3 29 16 52 28 SW 1017,2 - 0,6
11.01.2018 04:00:00 8,5 3,1 23 12 53 29 W 1016,3 - 0,6
11.01.2018 03:00:00 8,5 0,5 23 12 43 23 SW 1016,2 - 0,0
11.01.2018 02:00:00 8,2 1,1 22 12 42 23 SW 1016,3 - 0,0

tt = Température de l'air
td = dewpoint
ff = Vitesse du vent
fx = gusts
dd = Direction du vent
ppp = reduced air pressure
vv = visibility
rr = Quantités de précipitations

stations d'obs. à proximité